SVFLIR Weather Reports


Display with metric or nautical units.
time (UTC)temp
F
wind
direction
speed
MPH
gust
MPH
rain 1hr
in
rain 24hr
in
rain mn
in
humidity
%
barometer
mb
20260507210714 87 127 5.0 15.0 0.00 0.00 0.00 100 1009.4
20260507210213 87 239 9.0 15.0 0.00 0.00 0.00 100 1009.4
20260507205713 86 358 6.0 13.0 0.00 0.00 0.00 100 1009.4
20260507205213 87 257 9.0 16.0 0.00 0.00 0.00 100 1009.4
20260507204712 88 182 12.0 16.0 0.00 0.00 0.00 100 1009.4
20260507204211 90 243 7.0 15.0 0.00 0.00 0.00 100 1009.4
20260507203711 89 260 5.0 14.0 0.00 0.00 0.00 100 1009.4
20260507203210 88 253 1.0 14.0 0.00 0.00 0.00 100 1009.4
20260507202705 88 255 8.0 13.0 0.00 0.00 0.00 100 1009.4
20260507202422 89 255 6.0 13.0 0.00 0.00 0.00 100 1009.4
20260507201704 89 281 6.0 14.0 0.00 0.00 0.00 100 1009.4
20260507201204 87 184 9.0 19.0 0.00 0.00 0.00 100 1009.4
20260507200703 87 180 10.0 19.0 0.00 0.00 0.00 100 1009.4
20260507200202 87 223 8.0 19.0 0.00 0.00 0.00 100 1009.4
20260507195702 88 246 7.0 15.0 0.00 0.00 0.00 100 1009.4
20260507195201 86 244 8.0 15.0 0.00 0.00 0.00 100 1009.4
20260507194700 87 255 9.0 16.0 0.00 0.00 0.00 100 1009.4
20260507194200 87 212 11.0 16.0 0.00 0.00 0.00 100 1009.4
20260507193659 86 213 11.0 15.0 0.00 0.00 0.00 100 1009.4
20260507193158 88 195 4.0 15.0 0.00 0.00 0.00 100 1009.4
20260507192658 89 241 8.0 15.0 0.00 0.00 0.00 100 1009.4
20260507192157 90 246 6.0 14.0 0.00 0.00 0.00 100 1009.4
20260507191913 90 299 2.0 14.0 0.00 0.00 0.00 100 1009.4
20260507191156 90 288 6.0 14.0 0.00 0.00 0.00 100 1009.4
20260507190656 89 174 11.0 14.0 0.00 0.00 0.00 100 1009.4
20260507190413 89 244 6.0 13.0 0.00 0.00 0.00 100 1009.4
20260507185654 89 241 8.0 14.0 0.00 0.00 0.00 100 1009.4
20260507185154 88 352 6.0 14.0 0.00 0.00 0.00 100 1009.4
20260507184653 88 258 9.0 16.0 0.00 0.00 0.00 100 1009.4
20260507184420 87 226 8.0 16.0 0.00 0.00 0.00 100 1009.4
20260507183152 90 247 6.0 12.0 0.00 0.00 0.00 100 1009.4
20260507182651 89 198 6.0 13.0 0.00 0.00 0.00 100 1009.4
20260507182150 88 198 7.0 13.0 0.00 0.00 0.00 100 1009.4
20260507181650 89 150 7.0 13.0 0.00 0.00 0.00 100 1009.4
20260507181149 88 226 5.0 13.0 0.00 0.00 0.00 100 1009.4
20260507180648 88 233 7.0 13.0 0.00 0.00 0.00 100 1009.4
20260507180148 87 253 10.0 13.0 0.00 0.00 0.00 100 1009.4
20260507175647 89 236 8.0 11.0 0.00 0.00 0.00 100 1009.4
20260507175412 89 206 7.0 10.0 0.00 0.00 0.00 100 1009.4
20260507174915 88 229 4.0 10.0 0.00 0.00 0.00 100 1009.4
20260507174139 88 203 6.0 9.0 0.00 0.00 0.00 100 1009.4
20260507173638 87 177 6.0 9.0 0.00 0.00 0.00 100 1009.4
20260507173138 88 233 4.0 9.0 0.00 0.00 0.00 100 1009.4
20260507172637 87 227 4.0 9.0 0.00 0.00 0.00 100 1009.4
20260507172137 87 210 2.0 9.0 0.00 0.00 0.00 100 1009.4
20260507171636 87 239 2.0 10.0 0.00 0.00 0.00 100 1009.4
20260507170617 85 303 3.0 11.0 0.00 0.00 0.00 100 1009.4
20260507170116 85 254 5.0 10.0 0.00 0.00 0.00 100 1009.4
20260507165837 87 226 7.0 10.0 0.00 0.00 0.00 100 1009.4
20260507165115 86 250 6.0 10.0 0.00 0.00 0.00 100 1009.4
20260507164614 85 234 7.0 9.0 0.00 0.00 0.00 100 1009.4
20260507164114 85 265 4.0 7.0 0.00 0.00 0.00 100 1009.4
20260507163613 85 171 4.0 6.0 0.00 0.00 0.00 100 1009.4
20260507163113 84 220 2.0 9.0 0.00 0.00 0.00 100 1009.4
20260507162612 83 292 4.0 9.0 0.00 0.00 0.00 100 1009.4
20260507162111 84 7 6.0 8.0 0.00 0.00 0.00 100 1009.4
20260507161610 84 46 3.0 6.0 0.00 0.00 0.00 100 1009.4
20260507161109 83 317 3.0 6.0 0.00 0.00 0.00 100 1009.4
20260507160832 82 278 2.0 6.0 0.00 0.00 0.00 100 1009.4
20260507160109 82 255 4.0 6.0 0.00 0.00 0.00 100 1009.4
20260507155107 81 329 0.0 4.0 0.00 0.00 0.00 100 1009.4
20260507154545 80 298 0.0 5.0 0.00 0.00 0.00 100 1009.4
20260507154040 80 254 2.0 6.0 0.00 0.00 0.00 100 1009.4
20260507153540 79 230 0.0 6.0 0.00 0.00 0.00 100 1009.4
20260507153038 79 232 4.0 5.0 0.00 0.00 0.00 100 1009.4
20260507152756 79 239 2.0 5.0 0.00 0.00 0.00 100 1009.4
20260507151537 77 236 1.0 5.0 0.00 0.00 0.00 100 1009.4
20260507151034 77 277 3.0 5.0 0.00 0.00 0.00 100 1009.4
20260507150534 77 246 2.0 4.0 0.00 0.00 0.00 100 1009.4
20260507150033 77 233 0.0 5.0 0.00 0.00 0.00 100 1009.4
20260507145532 76 261 3.0 5.0 0.00 0.00 0.00 100 1009.4
20260507145032 76 251 3.0 5.0 0.00 0.00 0.00 100 1009.4
20260507144031 76 227 0.0 3.0 0.00 0.00 0.00 100 1009.4
20260507143530 75 19 0.0 0.0 0.00 0.00 0.00 100 1009.4
20260507143241 75 19 0.0 0.0 0.00 0.00 0.00 100 1009.4
20260507142508 74 19 0.0 0.0 0.00 0.00 0.00 100 1009.4
20260507141957 73 19 0.0 0.0 0.00 0.00 0.00 100 1009.4
20260507141431 71 19 0.0 0.0 0.00 0.00 0.00 100 1009.4
20260507140923 71 19 0.0 0.0 0.00 0.00 0.00 100 1009.4
20260507140424 69 19 0.0 0.0 0.00 0.00 0.00 100 1009.4
20260507135912 68 19 0.0 0.0 0.00 0.00 0.00 100 1009.4
20260507135406 67 19 0.0 0.0 0.00 0.00 0.00 100 1009.4
20260507134849 66 19 0.0 0.0 0.00 0.00 0.00 100 1009.4
20260507134344 65 19 0.0 0.0 0.00 0.00 0.00 100 1009.4
20260507133839 65 19 0.0 0.0 0.00 0.00 0.00 100 1009.4
20260507133330 64 19 0.0 0.0 0.00 0.00 0.00 100 1009.4
20260507132817 63 19 0.0 0.0 0.00 0.00 0.00 100 1009.4
20260507132307 62 19 0.0 0.0 0.00 0.00 0.00 100 1009.4
20260507131756 60 19 0.0 0.0 0.00 0.00 0.00 100 1009.4
20260507131248 60 19 0.0 3.0 0.00 0.00 0.00 100 1009.4
20260507130733 60 19 0.0 6.0 0.00 0.00 0.00 100 1009.4
20260507130452 60 358 4.0 6.0 0.00 0.00 0.00 100 1009.4
20260507125725 58 358 2.0 6.0 0.00 0.00 0.00 100 1009.4
20260507125219 58 354 3.0 6.0 0.00 0.00 0.00 100 1009.4
20260507124718 58 333 4.0 8.0 0.00 0.00 0.00 100 1009.4
20260507124218 58 343 3.0 8.0 0.00 0.00 0.00 100 1009.4
20260507123717 57 358 4.0 7.0 0.00 0.00 0.00 100 1009.4
20260507123217 57 310 3.0 5.0 0.00 0.00 0.00 100 1009.4
20260507122716 57 358 0.0 2.0 0.00 0.00 0.00 100 1009.4
20260507122213 57 358 0.0 4.0 0.00 0.00 0.00 100 1009.4
20260507121710 57 358 2.0 7.0 0.00 0.00 0.00 100 1009.4
20260507121208 58 358 4.0 7.0 0.00 0.00 0.00 100 1009.4
20260507120707 58 324 6.0 7.0 0.00 0.00 0.00 100 1009.4
20260507120207 59 330 5.0 8.0 0.00 0.00 0.00 100 1009.4
20260507115928 59 1 5.0 8.0 0.00 0.00 0.00 100 1009.4
20260507115205 58 7 7.0 8.0 0.00 0.00 0.00 100 1009.4
20260507114704 57 338 4.0 7.0 0.00 0.00 0.00 100 1009.4
20260507114204 57 326 6.0 6.0 0.00 0.00 0.00 100 1009.4
20260507113704 58 330 1.0 5.0 0.00 0.00 0.00 100 1009.4
20260507113424 58 358 1.0 5.0 0.00 0.00 0.00 100 1009.4
20260507112654 57 338 0.0 5.0 0.00 0.00 0.00 100 1009.4
20260507112151 58 7 4.0 5.0 0.00 0.00 0.00 100 1009.4
20260507111648 57 358 3.0 4.0 0.00 0.00 0.00 100 1009.4
20260507111148 58 355 0.0 7.0 0.00 0.00 0.00 100 1009.4
20260507110906 58 355 0.0 7.0 0.00 0.00 0.00 100 1009.4
20260507110139 58 358 5.0 7.0 0.00 0.00 0.00 100 1009.4
20260507105634 58 358 2.0 4.0 0.00 0.00 0.00 100 1009.4
20260507105133 58 358 0.0 0.0 0.00 0.00 0.00 100 1009.4
20260507104110 58 358 0.0 4.0 0.00 0.00 0.00 100 1009.4
20260507103558 57 358 0.0 4.0 0.00 0.00 0.00 100 1009.4
20260507103057 58 358 0.0 4.0 0.00 0.00 0.00 100 1009.4
20260507102541 58 358 0.0 4.0 0.00 0.00 0.00 100 1009.4
20260507102301 58 358 0.0 4.0 0.00 0.00 0.00 100 1009.4
20260507101526 58 333 0.0 6.0 0.00 0.00 0.00 100 1009.4
20260507101002 58 358 1.0 6.0 0.00 0.00 0.00 100 1009.4
20260507100458 58 338 2.0 6.0 0.00 0.00 0.00 100 1009.4
20260507095958 59 358 5.0 6.0 0.00 0.00 0.00 100 1009.4
20260507095457 59 358 0.0 0.0 0.00 0.00 0.00 100 1009.4
20260507094947 58 358 0.0 0.0 0.00 0.00 0.00 100 1009.4
20260507094420 58 358 0.0 1.0 0.00 0.00 0.00 100 1009.4
20260507094133 58 358 0.0 5.0 0.00 0.00 0.00 100 1009.4
20260507093410 59 358 0.0 5.0 0.00 0.00 0.00 100 1009.4
20260507092851 59 358 2.0 5.0 0.00 0.00 0.00 100 1009.4
20260507092350 59 358 1.0 4.0 0.00 0.00 0.00 100 1009.4
20260507092103 58 358 0.0 4.0 0.00 0.00 0.00 100 1009.4
20260507091331 58 331 0.0 4.0 0.00 0.00 0.00 100 1009.4
20260507090828 57 4 0.0 0.0 0.00 0.00 0.00 100 1009.4
20260507090319 58 4 0.0 0.0 0.00 0.00 0.00 100 1009.4
20260507085804 59 4 0.0 0.0 0.00 0.00 0.00 100 1009.4
20260507085256 59 4 0.0 0.0 0.00 0.00 0.00 100 1009.4
20260507084746 59 4 0.0 0.0 0.00 0.00 0.00 100 1009.4
20260507084245 59 4 0.0 0.0 0.00 0.00 0.00 100 1009.4
20260507083721 59 4 0.0 0.0 0.00 0.00 0.00 100 1009.4
20260507083211 60 4 0.0 0.0 0.00 0.00 0.00 100 1009.4
20260507082700 61 4 0.0 0.0 0.00 0.00 0.00 100 1009.4
20260507082148 61 4 0.0 3.0 0.00 0.00 0.00 100 1009.4
20260507081620 61 4 0.0 3.0 0.00 0.00 0.00 100 1009.4
20260507081111 61 4 0.0 6.0 0.00 0.00 0.00 100 1009.4
20260507080611 61 315 0.0 10.0 0.00 0.00 0.00 100 1009.4
20260507080046 62 315 1.0 11.0 0.00 0.00 0.00 100 1009.4
20260507075533 64 0 6.0 11.0 0.00 0.00 0.00 100 1009.4
20260507074532 60 54 1.0 5.0 0.00 0.00 0.00 100 1009.4
20260507074031 59 46 0.0 1.0 0.00 0.00 0.00 100 1009.4
20260507073520 58 46 0.0 1.0 0.00 0.00 0.00 100 1009.4
20260507073240 58 46 0.0 0.0 0.00 0.00 0.00 100 1009.4
20260507072457 59 46 0.0 0.0 0.00 0.00 0.00 100 1009.4
20260507072152 59 46 0.0 0.0 0.00 0.00 0.00 100 1009.4
20260507071645 58 46 0.0 0.0 0.00 0.00 0.00 100 1009.4
20260507070412 59 46 0.0 2.0 0.00 0.00 0.00 100 1009.4
20260507065859 59 46 0.0 2.0 0.00 0.00 0.00 100 1009.4
20260507065611 59 46 0.0 4.0 0.00 0.00 0.00 100 1009.4
20260507064821 58 46 0.0 4.0 0.00 0.00 0.00 100 1009.4
20260507064310 58 254 0.0 1.0 0.00 0.00 0.00 100 1009.4
20260507063804 59 120 0.0 0.0 0.00 0.00 0.00 100 1009.4
20260507063522 59 120 0.0 0.0 0.00 0.00 0.00 100 1009.4
20260507062758 59 120 0.0 0.0 0.00 0.00 0.00 100 1009.4
20260507062255 59 120 0.0 0.0 0.00 0.00 0.00 100 1009.4
20260507061755 59 120 0.0 0.0 0.00 0.00 0.00 100 1009.4
20260507061248 59 120 0.0 0.0 0.00 0.00 0.00 100 1009.4
20260507060735 59 120 0.0 0.0 0.00 0.00 0.00 100 1009.4
20260507060444 60 120 0.0 0.0 0.00 0.00 0.00 100 1009.4
20260507055714 60 120 0.0 0.0 0.00 0.00 0.00 100 1009.4
20260507055211 61 120 0.0 0.0 0.00 0.00 0.00 100 1009.4
20260507054706 62 120 0.0 0.0 0.00 0.00 0.00 100 1009.4
20260507054202 62 120 0.0 0.0 0.00 0.00 0.00 100 1009.4
20260507053643 62 120 0.0 0.0 0.00 0.00 0.00 100 1009.4
20260507053400 63 120 0.0 2.0 0.00 0.00 0.00 100 1009.4
20260507052635 63 120 0.0 2.0 0.00 0.00 0.00 100 1009.4
20260507052135 63 120 0.0 2.0 0.00 0.00 0.00 100 1009.4
20260507051628 64 257 0.0 0.0 0.00 0.00 0.00 100 1009.4
20260507051118 64 257 0.0 0.0 0.00 0.00 0.00 100 1009.4
20260507050617 64 257 0.0 0.0 0.00 0.00 0.00 100 1009.4
20260507050051 65 257 0.0 0.0 0.00 0.00 0.00 100 1009.4
20260507045804 66 257 0.0 0.0 0.00 0.00 0.00 100 1009.4
20260507045032 66 257 0.0 0.0 0.00 0.00 0.00 100 1009.4
20260507044520 67 257 0.0 4.0 0.00 0.00 0.00 100 1009.4
20260507044011 69 257 0.0 4.0 0.00 0.00 0.00 100 1009.4
20260507043511 71 257 0.0 4.0 0.00 0.00 0.00 100 1009.4
20260507043236 72 278 3.0 6.0 0.00 0.00 0.00 100 1009.4
20260507042507 73 272 4.0 6.0 0.00 0.00 0.00 100 1009.4
20260507042007 73 285 5.0 6.0 0.00 0.00 0.00 100 1009.4
20260507041506 73 265 5.0 6.0 0.00 0.00 0.00 100 1009.4
20260507041006 73 248 5.0 6.0 0.00 0.00 0.00 100 1009.4
20260507040505 73 254 4.0 5.0 0.00 0.00 0.00 100 1009.4
20260507040004 73 261 3.0 5.0 0.00 0.00 0.00 100 1009.4
20260507035503 73 274 3.0 6.0 0.00 0.00 0.00 100 1009.4
20260507035002 74 265 4.0 7.0 0.00 0.00 0.00 100 1009.4
20260507034720 74 257 5.0 7.0 0.00 0.00 0.00 100 1009.4
20260507034228 74 250 5.0 8.0 0.00 0.00 0.00 100 1009.4
20260507033725 74 258 5.0 9.0 0.00 0.00 0.00 100 1009.4
20260507033000 75 261 6.0 9.0 0.00 0.00 0.00 100 1009.4
20260507032500 75 258 7.0 10.0 0.00 0.00 0.00 100 1009.4
20260507032226 75 278 7.0 10.0 0.00 0.00 0.00 100 1009.4
20260507031458 75 261 8.0 10.0 0.00 0.00 0.00 100 1009.4
20260507030958 75 289 8.0 10.0 0.00 0.00 0.00 100 1009.4
20260507030458 75 260 7.0 10.0 0.00 0.00 0.00 100 1009.4
20260507025957 75 261 7.0 9.0 0.00 0.00 0.00 100 1009.4
20260507025456 75 274 7.0 9.0 0.00 0.00 0.00 100 1009.4
20260507024956 76 265 6.0 10.0 0.00 0.00 0.00 100 1009.4
20260507024455 76 282 6.0 11.0 0.00 0.00 0.00 100 1009.4
20260507023955 76 251 6.0 11.0 0.00 0.00 0.00 100 1009.4
20260507023454 76 254 6.0 9.0 0.00 0.00 0.00 100 1009.4
20260507022953 75 271 5.0 10.0 0.00 0.00 0.00 100 1009.4
20260507022453 76 265 6.0 11.0 0.00 0.00 0.00 100 1009.4
20260507022219 76 255 7.0 11.0 0.00 0.00 0.00 100 1009.4
20260507021451 76 230 7.0 9.0 0.00 0.00 0.00 100 1009.4
20260507020950 76 260 7.0 9.0 0.00 0.00 0.00 100 1009.4
20260507020717 77 258 6.0 9.0 0.00 0.00 0.00 100 1009.4
20260507020210 77 267 6.0 9.0 0.00 0.00 0.00 100 1009.4
20260507015447 78 271 6.0 10.0 0.00 0.00 0.00 100 1009.4
20260507014947 78 285 6.0 10.0 0.00 0.00 0.00 100 1009.4
20260507014446 78 277 9.0 10.0 0.00 0.00 0.00 100 1009.4
20260507013943 78 261 5.0 10.0 0.00 0.00 0.00 100 1009.4
20260507012942 79 255 5.0 9.0 0.00 0.00 0.00 100 1009.4
20260507012707 79 246 5.0 8.0 0.00 0.00 0.00 100 1009.4
20260507011941 79 248 3.0 11.0 0.00 0.00 0.00 100 1009.4
20260507011439 79 246 5.0 11.0 0.00 0.00 0.00 100 1009.4
20260507010439 79 261 5.0 10.0 0.00 0.00 0.00 100 1009.4
20260507005938 79 225 3.0 11.0 0.00 0.00 0.00 100 1009.4
20260507005658 79 291 6.0 12.0 0.00 0.00 0.00 100 1009.4
20260507004937 79 237 7.0 12.0 0.00 0.00 0.00 100 1009.4
20260507004436 80 247 9.0 10.0 0.00 0.00 0.00 100 1009.4
20260507003936 80 236 5.0 9.0 0.00 0.00 0.00 100 1009.4
20260507003653 80 250 6.0 11.0 0.00 0.00 0.00 100 1009.4
20260507002935 80 237 6.0 14.0 0.00 0.00 0.00 100 1009.4
20260507002434 80 255 8.0 14.0 0.00 0.00 0.00 100 1009.4
20260507001933 80 261 11.0 14.0 0.00 0.00 0.00 100 1009.4
20260507001433 80 243 9.0 11.0 0.00 0.00 0.00 100 1009.4
20260507000932 80 232 4.0 11.0 0.00 0.00 0.00 100 1009.4
20260507000431 80 236 6.0 15.0 0.00 0.00 0.00 100 1009.4
20260506235931 80 232 6.0 15.0 0.00 0.00 0.00 100 1009.4
20260506235431 80 243 11.0 15.0 0.00 0.00 0.00 100 1009.4
20260506234929 80 243 12.0 15.0 0.00 0.00 0.00 100 1009.4
20260506234428 80 251 4.0 10.0 0.00 0.00 0.00 100 1009.4
20260506232927 80 241 10.0 14.0 0.00 0.00 0.00 100 1009.4
20260506232426 80 271 10.0 14.0 0.00 0.00 0.00 100 1009.4
20260506231926 81 254 4.0 12.0 0.00 0.00 0.00 100 1009.4
20260506231425 81 298 7.0 11.0 0.00 0.00 0.00 100 1009.4
20260506230925 80 195 0.0 11.0 0.00 0.00 0.00 100 1009.4
20260506230424 80 286 7.0 17.0 0.00 0.00 0.00 100 1009.4
20260506225924 79 192 1.0 17.0 0.00 0.00 0.00 100 1009.4
20260506225423 80 281 9.0 15.0 0.00 0.00 0.00 100 1009.4
20260506224922 81 232 10.0 15.0 0.00 0.00 0.00 100 1009.4
20260506224421 80 315 8.0 15.0 0.00 0.00 0.00 100 1009.4
20260506223921 82 313 7.0 14.0 0.00 0.00 0.00 100 1009.4
20260506223420 81 268 8.0 13.0 0.00 0.00 0.00 100 1009.4
20260506222920 79 32 0.0 12.0 0.00 0.00 0.00 100 1009.4
20260506222407 80 336 6.0 13.0 0.00 0.00 0.00 100 1009.4
20260506221907 80 309 7.0 13.0 0.00 0.00 0.00 100 1009.4
20260506221406 80 226 6.0 13.0 0.00 0.00 0.00 100 1009.4
20260506220905 81 222 7.0 11.0 0.00 0.00 0.00 100 1009.4
20260506220400 80 358 4.0 13.0 0.00 0.00 0.00 100 1009.4
20260506215858 80 323 8.0 13.0 0.00 0.00 0.00 100 1009.4
20260506215357 80 255 1.0 11.0 0.00 0.00 0.00 100 1009.4
20260506214856 80 213 4.0 11.0 0.00 0.00 0.00 100 1009.4
20260506214356 82 241 7.0 11.0 0.00 0.00 0.00 100 1009.4
20260506213855 81 198 1.0 8.0 0.00 0.00 0.00 100 1009.4
20260506213349 80 209 5.0 7.0 0.00 0.00 0.00 100 1009.4
20260506212848 80 253 2.0 11.0 0.00 0.00 0.00 100 1009.4
20260506212336 80 212 4.0 11.0 0.00 0.00 0.00 100 1009.4
20260506211835 80 171 2.0 8.0 0.00 0.00 0.00 100 1009.4
20260506211335 80 189 4.0 11.0 0.00 0.00 0.00 100 1009.4